Miscellaneous Local Product
Issued by NWS North Platte, NE

Home | Current Version | Previous Version | Text Only | Print | Product List | Glossary On
Versions: 1 2 3 4 5 6 7 8 9 10 11 12 13 14 15 16 17 18 19 20 21 22 23 24 25 26 27 28 29 30 31 32 33 34 35 36 37 38 39 40 41 42 43 44 45 46 47 48 49 50
000
AXUS43 KLBF 041610
MISLBF


WESTERN AND NORTH CENTRAL NEBRASKA HOURLY WEATHER ROUNDUP
NATIONAL WEATHER SERVICE NORTH PLATTE NE
1100 AM CDT WED MAY 04 2016

NOTE: "FAIR" INDICATES FEW OR NO CLOUDS BELOW 12,000 FEET WITH NO
SIGNIFICANT WEATHER AND/OR OBSTRUCTIONS TO VISIBILITY.

NOTE: STATIONS NOT REPORTING VARIABLES SUCH AS SKY/WEATHER OR
PRESSURE ARE PROVIDED BY RAWS AND APRS NETWORKS AND ARE NOT UNDER
NATIONAL WEATHER SERVICE QUALITY CONTROL.

...OBSERVATIONS IN AND NEAR THE EASTERN PANHANDLE OF NEBRASKA...

CITY           SKY/WX    TMP DP  RH WIND       PRES   REMARKS
PINE RIDGE     SUNNY     65  43  44 W5        30.17F
CHADRON        SUNNY     64  45  49 SW3       30.17F
ALLIANCE       SUNNY     66  41  40 N7        30.19F
SIDNEY         SUNNY     67  39  35 VRB5      30.22S
BIG SPRINGS      N/A     55  46  71 W3          N/A
$$

...OBSERVATIONS IN NORTHERN NEBRASKA AND FAR SOUTHERN SOUTH DAKOTA...

CITY           SKY/WX    TMP DP  RH WIND       PRES   REMARKS
WINNER         FAIR      61  37  41 N6        30.14F
VALENTINE      SUNNY     63  31  30 VRB3      30.15F
THEDFORD       SUNNY     65  36  33 N7        30.16S
AINSWORTH      SUNNY     62  32  32 N6        30.15S
O`NEILL        SUNNY     60  32  34 NW13      30.13S
ORD            SUNNY     62  35  36 N14       30.11F
BROKEN BOW     SUNNY     63  35  35 N12       30.13S
VALENTINE NWR    N/A     62  37  39 N3          N/A
$$

...OBSERVATIONS IN SOUTHWEST NEBRASKA AND FAR NORTHEAST COLORADO...

CITY           SKY/WX    TMP DP  RH WIND       PRES   REMARKS
HOLYOKE        FAIR      70  45  40 N9        30.21R
IMPERIAL       SUNNY     66  41  40 N9        30.19S
OGALLALA       SUNNY     66  41  40 N5        30.18S
NORTH PLATTE   SUNNY     64  43  46 W5        30.15F
MCCOOK         SUNNY     66  39  37 CALM      30.16S
LEXINGTON      SUNNY     63  36  37 N7        30.15R
PAXTON           N/A     57  48  72 CALM        N/A
GOTHENBURG       N/A     61  37  40 N3          N/A
CALLAWAY         N/A     59  41  52 N7          N/A
$$

...OBSERVATIONS IN CENTRAL LINCOLN COUNTY AREA...

CITY           SKY/WX    TMP DP  RH WIND       PRES   REMARKS
N.P. AIRPORT   SUNNY     64  43  46 W5        30.15F
$$

...SOME OBSERVATIONS FROM AROUND THE REGION...

CITY           SKY/WX    TMP DP  RH WIND       PRES   REMARKS
DENVER         SUNNY     64  30  27 W7        30.26F
LARAMIE        SUNNY     53  31  42 CALM      30.31F
CHEYENNE       SUNNY     63  31  30 W6        30.27F
SCOTTSBLUFF    SUNNY     63  44  50 NW5       30.20F
RAPID CITY     SUNNY     69  45  41 VRB5      30.14F
BISMARCK       SUNNY     63  35  35 S6        30.10F
PIERRE         SUNNY     59  35  40 CALM      30.12F
SIOUX FALLS    SUNNY     59  38  45 N10       30.08F
OMAHA          SUNNY     61  42  49 N9        30.05S
GRAND ISLAND   SUNNY     61  34  36 N15       30.12S
KANSAS CITY    SUNNY     64  43  46 N8G18     29.99R
WICHITA        SUNNY     68  43  40 N15       30.06R
OKLAHOMA CITY  SUNNY     72  48  42 NW15      30.06S
DALLAS         SUNNY     74  52  46 NW13G22   30.06F
AMARILLO       SUNNY     68  38  33 NW10      30.22S
DODGE CITY     SUNNY     67  43  41 N14       30.15R
HAYS           SUNNY     64  41  42 N8        30.13S
GOODLAND       SUNNY     69  40  34 N8        30.19S
$$




USA.gov is the U.S. government's official web portal to all federal, state and local government web resources and services.